Location: Kelowna
(49.8880°N, 119.4960°W)
Time: 02:18:21
(UTC-07:00)

CAS-4A - Pass Details

Date: 17 April 2024
Orbit: 475 x 491 km, 43.0° (Epoch: 25 May)

Event Time Altitude Azimuth Distance (km) Brightness Sun altitude
Exits shadow 03:26:48 - 134° (SE) 2,109 ? -21.2°
Enters shadow 04:25:26 -69° 259° (W) 12,432 ? -14.3°
Maximum altitude 05:04:04 18° 159° (SSE) 1,262 ? -9.1°
